Location: Mountain_View
(35.6670°N, 81.4000°W)
Time: 19:12:42
(UTC-04:00)

Amateur Radio Satellites - All Passes

Search period start: 28 August 2014 18:42
Search period end: 29 August 2014 18:42
Location: Mountain_View, 35.6670°N, 81.4000°W

Satellite Date Start Highest point End Downlink Frequencies (MHz)
Time Altitude Azimuth
ISS 28 Aug 18:43:03 18:46:15 43° 38° (NE) 18:49:27 145.800 FM
Hamsat 28 Aug 19:13:33 19:17:29 36° 263° (W) 19:21:29 145.90 MHz
Sapphire 28 Aug 19:20:40 19:24:58 24° 307° (NW) 19:29:17 437.095 MHz 1200 baud AX-25 AFSK
OPAL 28 Aug 19:24:55 19:28:00 16° 298° (WNW) 19:31:06 ?
STRAND 1 28 Aug 19:24:57 19:29:06 25° 96° (E) 19:33:14 ?
RS-15 28 Aug 19:26:52 19:37:18 48° 251° (WSW) 19:48:11 29.354 - 29.394 USB, Beacon 29.352 USB
JAS-2 28 Aug 19:28:40 19:34:40 39° 261° (W) 19:40:04 435.800 - 435.900 CW/SSB, 435.910 FM
PCSat 28 Aug 19:52:44 19:55:12 13° 314° (NW) 19:57:41 145.825 MHz
HO-68 28 Aug 20:09:01 20:13:38 19° 59° (ENE) 20:18:14 435.675 MHz FM
SO-67 28 Aug 20:09:30 20:12:52 49° 261° (W) 20:16:15 435.3500 MHz FM
ISS 28 Aug 20:20:42 20:22:43 15° 232° (SW) 20:24:43 145.800 FM
UKube-1 28 Aug 20:52:23 20:53:49 11° 64° (ENE) 20:55:14 145.840 MHz, 145.915 MHz
STRAND 1 28 Aug 21:03:45 21:08:16 33° 290° (WNW) 21:12:47 ?
HO-68 28 Aug 21:53:23 22:00:31 77° 255° (WSW) 22:07:41 435.675 MHz FM
UKube-1 28 Aug 22:25:14 22:29:29 57° 259° (W) 22:33:47 145.840 MHz, 145.915 MHz
Oscar 11 28 Aug 22:33:36 22:37:55 80° 258° (WSW) 22:42:17 145.825 FM, Beacon 2401.500 USB
AO-40 28 Aug 22:38:31 05:21:54 48° 176° (S) 07:16:23 Beacon 2401.320
MaSat-1 28 Aug 22:49:03 22:49:51 10° 48° (NE) 22:50:39 437.345 MHz
FUNcube-1 28 Aug 22:53:26 22:57:30 60° 75° (ENE) 23:01:40 145.950 - 145.970 MHz USB
Saudisat 1A 28 Aug 23:32:37 23:36:58 64° 117° (ESE) 23:41:20 436.775 MHz
KITSAT 1 29 Aug 00:15:22 00:23:20 66° 113° (ESE) 00:31:20 435.175 FM
MaSat-1 29 Aug 00:23:08 00:27:39 77° 249° (WSW) 00:31:30 437.345 MHz
Saudisat 1A 29 Aug 01:14:42 01:16:58 14° 314° (NW) 01:19:14 436.775 MHz
Oscar 16 29 Aug 02:03:34 02:07:32 22° 95° (E) 02:11:28 437.025 USB, Beacon 2401.1428
KITSAT 1 29 Aug 02:12:33 02:19:17 28° 312° (NW) 02:26:02 435.175 FM
JAS-1B 29 Aug 02:20:49 02:23:00 12° 86° (E) 02:25:06 435.800 - 435.900 CW/SSB
AO-27 29 Aug 02:26:10 02:28:53 14° 92° (E) 02:31:35 436.795 MHz FM
Sapphire 29 Aug 02:27:44 02:31:47 21° 51° (NE) 02:35:48 437.095 MHz 1200 baud AX-25 AFSK
PCSat 29 Aug 02:56:46 03:01:50 38° 57° (ENE) 03:06:51 145.825 MHz
Oscar 19 29 Aug 03:07:17 03:12:31 88° 284° (WNW) 03:17:42 437.125 CW, 437.150 USB
TMSAT-1 29 Aug 03:34:18 03:38:21 22° 95° (E) 03:42:22 436.925 FM
ITAMSAT 1 29 Aug 03:35:01 03:40:13 73° 102° (ESE) 03:45:23 435.822 SSB
Oscar 16 29 Aug 03:42:10 03:46:57 38° 289° (WNW) 03:51:43 437.025 USB, Beacon 2401.1428
Uribyol 2 29 Aug 03:45:31 03:50:44 83° 284° (WNW) 03:55:55 436.500 FM
AO-Echo 29 Aug 03:50:50 03:55:29 65° 285° (WNW) 04:00:09 ?
AO-7 29 Aug 04:01:13 04:02:39 11° 89° (E) 04:04:06 29.400 - 29.500 MHz
AO-27 29 Aug 04:03:38 04:08:43 58° 287° (WNW) 04:13:47 436.795 MHz FM
JAS-1B 29 Aug 04:07:56 04:14:42 76° 286° (WNW) 04:20:33 435.800 - 435.900 CW/SSB
Sapphire 29 Aug 04:10:14 04:15:30 52° 248° (WSW) 04:20:43 437.095 MHz 1200 baud AX-25 AFSK
Gurwin Techsat 1B 29 Aug 04:20:15 04:25:35 88° 103° (ESE) 04:30:53 435.225 FM
PCSat 29 Aug 04:40:38 04:45:00 25° 253° (WSW) 04:49:20 145.825 MHz
Uosat F 29 Aug 04:40:50 04:43:56 16° 94° (E) 04:47:01 435.120 FM
SO-50 29 Aug 04:55:16 04:59:42 75° 300° (WNW) 05:04:16 436.795 FM
OPAL 29 Aug 04:56:35 05:01:35 75° 73° (ENE) 05:06:42 ?
TMSAT-1 29 Aug 05:13:27 05:18:21 39° 289° (WNW) 05:23:14 436.925 FM
ITAMSAT 1 29 Aug 05:16:59 05:19:02 12° 298° (WNW) 05:21:06 435.822 SSB
UOSAT-12 29 Aug 05:27:20 05:30:08 16° 108° (ESE) 05:32:59 437.025 FM, 437.400 FM
AO-7 29 Aug 05:48:17 05:56:36 74° 105° (ESE) 06:04:50 29.400 - 29.500 MHz
Gurwin Techsat 1B 29 Aug 06:03:53 06:04:45 10° 299° (WNW) 06:05:36 435.225 FM
Uosat F 29 Aug 06:18:08 06:22:56 48° 288° (WNW) 06:27:42 435.120 FM
STRAND 1 29 Aug 06:38:14 06:42:28 27° 68° (ENE) 06:46:43 ?
JAS-2 29 Aug 06:40:24 06:44:50 27° 97° (E) 06:49:33 435.800 - 435.900 CW/SSB, 435.910 FM
OPAL 29 Aug 06:40:31 06:40:58 10° 268° (W) 06:41:25 ?
Oscar 10/S400 29 Aug 07:00:27 07:42:35 13° 261° (W) 08:44:00 145.825 - 145.975 CW/USB, Beacon 145.810 USB
Hamsat 29 Aug 07:01:55 07:06:09 48° 99° (E) 07:10:18 145.90 MHz
UOSAT-12 29 Aug 07:05:25 07:09:51 47° 304° (WNW) 07:14:23 437.025 FM, 437.400 FM
RS-15 29 Aug 07:35:09 07:44:58 38° 107° (ESE) 07:54:33 29.354 - 29.394 USB, Beacon 29.352 USB
SO-67 29 Aug 07:37:34 07:39:13 13° 93° (E) 07:40:51 435.3500 MHz FM
AO-7 29 Aug 07:42:29 07:48:33 23° 303° (WNW) 07:54:37 29.400 - 29.500 MHz
Saudisat 1A 29 Aug 08:02:37 08:06:10 23° 51° (NE) 08:09:42 436.775 MHz
KITSAT 1 29 Aug 08:12:49 08:18:38 21° 43° (NE) 08:24:24 435.175 FM
STRAND 1 29 Aug 08:17:04 08:21:31 30° 263° (W) 08:25:59 ?
JAS-2 29 Aug 08:25:21 08:29:55 31° 290° (WNW) 08:34:46 435.800 - 435.900 CW/SSB, 435.910 FM
Hamsat 29 Aug 08:39:38 08:41:38 13° 294° (WNW) 08:43:39 145.90 MHz
SO-67 29 Aug 09:09:19 09:12:17 27° 287° (WNW) 09:15:14 435.3500 MHz FM
HO-68 29 Aug 09:25:22 09:30:55 24° 95° (E) 09:36:26 435.675 MHz FM
Saudisat 1A 29 Aug 09:41:51 09:45:46 32° 247° (WSW) 09:49:40 436.775 MHz
RS-15 29 Aug 09:45:59 09:56:48 56° 306° (NW) 10:07:30 29.354 - 29.394 USB, Beacon 29.352 USB
KITSAT 1 29 Aug 10:06:59 10:15:06 90° 244° (WSW) 10:23:10 435.175 FM
UKube-1 29 Aug 10:16:43 10:20:31 29° 98° (E) 10:24:17 145.840 MHz, 145.915 MHz
Oscar 11 29 Aug 10:24:51 10:28:21 23° 95° (E) 10:31:48 145.825 FM, Beacon 2401.500 USB
FUNcube-1 29 Aug 10:46:27 10:49:15 16° 93° (E) 10:52:05 145.950 - 145.970 MHz USB
HO-68 29 Aug 11:11:57 11:18:54 56° 290° (WNW) 11:25:50 435.675 MHz FM
ISS 29 Aug 11:23:19 11:26:37 74° 137° (SE) 11:29:56 145.800 FM
UKube-1 29 Aug 11:53:16 11:56:31 21° 292° (WNW) 11:59:45 145.840 MHz, 145.915 MHz
Oscar 11 29 Aug 12:00:49 12:04:27 26° 290° (WNW) 12:08:04 145.825 FM, Beacon 2401.500 USB
KITSAT 1 29 Aug 12:05:13 12:09:21 15° 259° (W) 12:13:30 435.175 FM
RS-15 29 Aug 12:05:40 12:12:20 17° 335° (NNW) 12:19:01 29.354 - 29.394 USB, Beacon 29.352 USB
FUNcube-1 29 Aug 12:21:30 12:25:46 41° 287° (WNW) 12:30:04 145.950 - 145.970 MHz USB
Oscar 19 29 Aug 12:46:32 12:47:44 11° 61° (ENE) 12:48:56 437.125 CW, 437.150 USB
JAS-1B 29 Aug 13:00:22 13:05:36 16° 57° (ENE) 13:10:34 435.800 - 435.900 CW/SSB
ISS 29 Aug 13:01:44 13:03:42 15° 333° (NNW) 13:05:39 145.800 FM
PANSAT 29 Aug 13:10:02 13:12:49 19° 166° (SSE) 13:15:37 not established
Oscar 16 29 Aug 13:17:52 13:21:57 24° 67° (ENE) 13:26:03 437.025 USB, Beacon 2401.1428
Uribyol 2 29 Aug 13:24:58 13:26:52 12° 62° (ENE) 13:28:46 436.500 FM
AO-Echo 29 Aug 13:25:35 13:27:25 12° 64° (ENE) 13:29:14 ?
SO-50 29 Aug 13:29:35 13:34:11 44° 56° (NE) 13:38:48 436.795 FM
AO-27 29 Aug 13:41:36 13:44:55 18° 65° (ENE) 13:48:15 436.795 MHz FM
Gurwin Techsat 1B 29 Aug 14:02:41 14:04:28 12° 62° (ENE) 14:06:16 435.225 FM
MaSat-1 29 Aug 14:07:08 14:11:52 80° 112° (ESE) 14:16:59 437.345 MHz
Oscar 19 29 Aug 14:21:10 14:26:19 83° 257° (WSW) 14:31:31 437.125 CW, 437.150 USB
RS-15 29 Aug 14:26:40 14:31:31 13° 14° (NNE) 14:36:23 29.354 - 29.394 USB, Beacon 29.352 USB
JAS-1B 29 Aug 14:44:57 14:54:48 74° 73° (ENE) 15:03:50 435.800 - 435.900 CW/SSB
PANSAT 29 Aug 14:49:12 14:52:32 28° 179° (S) 14:55:51 not established
ITAMSAT 1 29 Aug 14:50:07 14:55:17 82° 75° (ENE) 15:00:29 435.822 SSB
TMSAT-1 29 Aug 14:52:18 14:56:37 26° 68° (ENE) 15:00:57 436.925 FM
AO-7 29 Aug 14:56:19 15:00:32 15° 52° (NE) 15:04:44 29.400 - 29.500 MHz
Oscar 16 29 Aug 14:56:24 15:01:04 35° 262° (W) 15:05:48 437.025 USB, Beacon 2401.1428
AO-Echo 29 Aug 15:00:31 15:05:36 71° 258° (WSW) 15:10:33 ?
Uribyol 2 29 Aug 15:00:31 15:05:40 74° 257° (WSW) 15:10:50 436.500 FM
SO-50 29 Aug 15:11:03 15:14:25 19° 250° (WSW) 15:17:48 436.795 FM
AO-27 29 Aug 15:18:58 15:23:59 51° 260° (W) 15:29:02 436.795 MHz FM
UOSAT-12 29 Aug 15:37:38 15:42:20 65° 59° (ENE) 15:46:56 437.025 FM, 437.400 FM
Gurwin Techsat 1B 29 Aug 15:38:24 15:43:42 80° 257° (WSW) 15:49:02 435.225 FM
MaSat-1 29 Aug 15:47:14 15:49:33 13° 309° (NW) 15:51:56 437.345 MHz
Uosat F 29 Aug 15:51:38 15:54:55 18° 65° (ENE) 15:58:12 435.120 FM
PANSAT 29 Aug 16:29:17 16:32:15 21° 192° (SSW) 16:35:13 not established
TMSAT-1 29 Aug 16:31:38 16:36:21 33° 263° (W) 16:41:07 436.925 FM
JAS-1B 29 Aug 16:37:56 16:45:36 26° 267° (W) 16:52:56 435.800 - 435.900 CW/SSB
RS-15 29 Aug 16:38:31 16:48:34 37° 46° (NE) 16:58:52 29.354 - 29.394 USB, Beacon 29.352 USB
AO-7 29 Aug 16:43:38 16:51:56 76° 70° (ENE) 17:00:15 29.400 - 29.500 MHz
Oscar 10/S400 29 Aug 16:48:21 17:06:14 31° 147° (SSE) 17:24:35 145.825 - 145.975 CW/USB, Beacon 145.810 USB
Sapphire 29 Aug 17:06:22 17:11:03 31° 108° (ESE) 17:15:46 437.095 MHz 1200 baud AX-25 AFSK
OPAL 29 Aug 17:10:01 17:14:20 26° 98° (E) 17:18:36 ?
UOSAT-12 29 Aug 17:20:19 17:21:52 12° 254° (WSW) 17:23:24 437.025 FM, 437.400 FM
Uosat F 29 Aug 17:28:30 17:33:18 47° 260° (W) 17:38:08 435.120 FM
PCSat 29 Aug 17:35:12 17:40:32 64° 113° (ESE) 17:45:54 145.825 MHz
Hamsat 29 Aug 17:52:51 17:56:19 24° 70° (ENE) 17:59:50 145.90 MHz
ISS 29 Aug 17:54:50 17:57:42 26° 33° (NNE) 18:00:33 145.800 FM
